Regional Weather Roundup
Issued by NWS Newport/Morehead, NC

Current Version | Previous Version | Text Only | Print | Product List | Glossary On
Versions: 1 2 3 4 5 6 7 8 9 10 11 12 13 14 15 16 17 18 19 20 21 22 23 24 25 26 27 28 29 30 31 32 33 34 35 36 37 38 39 40 41 42 43 44 45 46 47 48 49 50
000
ASUS42 KMHX 270514
RWRMHX
WEATHER ROUNDUP FOR EASTERN NORTH CAROLINA
NATIONAL WEATHER SERVICE NEWPORT/MOREHEAD CITY NC
100 AM EDT THU JUL 27 2017

NOTE: "FAIR" INDICATES FEW OR NO CLOUDS BELOW 12,000 FEET
WITH NO SIGNIFICANT WEATHER AND/OR OBSTRUCTIONS TO VISIBILITY

NCZ015>017-031-032-045>047-102-103-270600-
NORTH COAST

CITY           SKY/WX    TMP DP  RH WIND       PRES   REMARKS
EDENTON        CLOUDY    75  68  79 CALM      30.12F
ELIZABETH CITY CLEAR     73  69  87 CALM      30.12S
KITTY HAWK     CLEAR     73  65  75 CALM      30.10F
MANTEO         CLEAR     72  66  80 SE3       30.12S

$$

NCZ045>047-081-094-103-104-270600-
CENTRAL COAST

CITY           SKY/WX    TMP DP  RH WIND       PRES   REMARKS
FRISCO         CLEAR     74  69  85 NE5       30.10F

$$

NCZ095-097-098-100-101-270600-
SOUTHERN COAST

CITY           SKY/WX    TMP DP  RH WIND       PRES   REMARKS
BEAUFORT       CLEAR     72  71  97 NE3       30.09F
CEDAR ISLAND   NOT AVBL
JACKSONVILLE   CLEAR     73  71  93 CALM      30.09F
PINEY ISLAND   CLEAR    N/A N/A N/A E6        30.09F
WILMINGTON     CLEAR     75  72  90 SE5       30.08F


$$

NCZ011>013-027>030-043-044-078>080-089-090>093-098-270600-
COASTAL PLAIN

CITY           SKY/WX    TMP DP  RH WIND       PRES   REMARKS
AHOSKIE          N/A     70  67  91 SE5       30.11F
CLINTON        CLEAR     73  70  91 CALM      30.11S
ELIZABETHTOWN  NOT AVBL
GOLDSBORO      CLEAR     73  71  92 CALM      30.09F
GREENVILLE     CLEAR     73  66  78 SE3       30.13S
HAVELOCK       CLEAR     70  67  90 CALM      30.11S
KENANSVILLE    CLEAR     70  68  94 CALM      30.11S
KINSTON        PTCLDY    74  66  75 SE3       30.12S
NEW BERN       CLEAR     69  68  96 CALM      30.11F
RICHLANDS      CLEAR     68  67  96 CALM      30.11S
ROCKY MOUNT    MOCLDY    73  68  84 S3        30.11S
WASHINGTON     CLEAR     71  67  88 CALM      30.12S
WHITEVILLE     CLEAR     72  69  92 CALM      30.09F

$$

AMZ130-135-150-152-154-156-158-170-250-252-270-ANZ085-086-088-633-658-670-270600-
MARINE OBSERVATIONS

STATION/POSITION TIME  TEMP    WIND        PRES    WAVE   SWELL
                       AIR SEA DIR/SP/G            HT/PER HT/PER
                 (UTC) (F)     (DEG/KT/KT) (MB)    (FT/S) (FT/S)
CHESAPEAKE LIGHT NOT AVBL
64 E VA BEACH    0450   74 77  100/  6/  8 1020.2    3/ 7   3/ 7
DUCK             0448   74 75  120/  5/  7 1019.5
2 E DUCK         0500      74                N/A     3/ 7
OREGON INLET     0448           80/  4/  6   N/A
13E OREGON INLT  0448      78                N/A     3/ 8   3/ 8
HATTERAS CG      0448   75 79   70/  3/  4 1019.1
DIAMOND BUOY     0450   80 83   80/  6/ 10 1018.8    3/ 7   3/ 7
CAPE LOOKOUT     0500   79      80/  7/  8 1018.5
BEAUFORT LAB     0448   74 79   40/  4/  5 1018.4
30 SE NEW RVR IN 0408   80 84  100/ 10/ 14 1019.0
30 SE NEW RVR IN 0443      84                N/A     3/ 5
27 SE WRIGHTSVLE 0408   82 82  110/ 12/ 17 1018.7
5 SE WRIGHTSVLE  0408   80 81  110/ 12/ 16 1018.7
225 S CAPE HAT   0450   81 83  250/  6/  8 1017.7    2/ 9   2/ 9
41 SE CHARLESTON 0450   80 82  110/  2/  4 1017.5    3/10   2/10

$$




USA.gov is the U.S. government's official web portal to all federal, state and local government web resources and services.